Terminal Aerodrome Forecast
Issued by NWS Memphis, TN

Home | Current Version | Previous Version | Text Only | Print | Product List | Glossary On
Versions: 1 2 3 4 5 6 7 8 9 10 11 12 13 14 15 16 17 18
000
FTUS44 KMEG 251739
TAFJBR
TAF
KJBR 251739Z 2518/2618 02007KT P6SM FEW120
     FM260100 VRB03KT P6SM FEW150
     FM260800 01004KT P6SM BKN150
     FM261200 05007KT P6SM BKN120=

USA.gov is the U.S. government's official web portal to all federal, state and local government web resources and services.